Weather in Namy

Russia / Sakha (Yakutia) Republic     69°30′44″N   132°14′35″E
temp.,
°C
wind,
m/s
gust,
m/s
humid.,
%
clouds,
%
prec.,
mm/h
press.,
hPa
HPBL,
m
9 august, tue
tue900:00+14ne4666100 0.0 1007140
03:00+14nne1164100 0.0 100711
06:00+15w1162100 0.0 100760
09:00+17sw225499 0.0 1007428
12:00+18nne015292 0.0 1007424
15:00+19nnw3348100 0.0 10071244
18:00+16ne355851 0.0 1008176
21:00+15ssw006322 0.0 100911
10 august, wed
wed1000:00+11sw11752 0.0 100910
03:00+11ssw33730 0.0 100911
06:00+14ssw35640 0.0 1008166
09:00+18ssw554657 0.0 1007631
12:00+21sw234036 0.0 10051195
15:00+22n22403 0.0 10051481
18:00+22e11420 0.0 10041072
21:00+18sse335423 0.0 100320
11 august, thu
thu1100:00+16s22614 0.0 100213
03:00+14s336170 0.0 100218
06:00+15nnw2261100 0.0 100380
09:00+15n777275 0.0 1004460
12:00+15n897597 0.0 1005641
15:00+14n8974100 0.0 1006758
18:00+12n6871100 0.0 1007611
21:00+11n5873100 0.0 1008381
12 august, fri
fri1200:00+10n586998 0.0 1009320
03:00+9n4670100 0.0 1009243
06:00+8n4568100 0.0 1010270
09:00+9n336599 0.0 1010399
12:00+10n2259100 0.0 1010547
15:00+12n0056100 0.0 1010687
18:00+12ne115697 0.0 1010711
21:00+11n4662100 0.0 1011191
13 august, sat
sat1300:00+8n456679 0.0 1012137
03:00+6nnw5670100 0.0 1013279
06:00+5n5672100 0.0 1013431
09:00+5nnw5569100 0.0 1014529
12:00+8n5562100 0.0 1013689
15:00+10n555868 0.0 1013889
18:00+9nnw556139 0.0 1013848
21:00+6n477657 0.0 1014192